TimePDT,TemperatureF,Dew PointF,Humidity,Sea Level PressureIn,VisibilityMPH,Wind Direction,Wind SpeedMPH,Gust SpeedMPH,PrecipitationIn,Events,Conditions,WindDirDegrees,DateUTC
12:56 AM,77.0,36.0,23,29.76,10.0,West,4.6,-,N/A,,Clear,260,2013-07-11 07:56:00
1:56 AM,75.9,39.9,27,29.76,10.0,Calm,Calm,-,N/A,,Clear,0,2013-07-11 08:56:00
2:56 AM,70.0,39.0,32,29.78,10.0,SSE,3.5,-,N/A,,Clear,160,2013-07-11 09:56:00
3:56 AM,71.1,39.9,32,29.81,10.0,West,9.2,-,N/A,,Clear,270,2013-07-11 10:56:00
4:56 AM,68.0,43.0,40,29.81,10.0,SE,4.6,-,N/A,,Clear,130,2013-07-11 11:56:00
5:56 AM,71.1,42.1,35,29.84,10.0,Calm,Calm,-,N/A,,Clear,0,2013-07-11 12:56:00
6:56 AM,70.0,42.1,36,29.85,10.0,Calm,Calm,-,N/A,,Clear,0,2013-07-11 13:56:00
7:56 AM,73.0,42.1,33,29.85,10.0,East,4.6,-,N/A,,Clear,90,2013-07-11 14:56:00
8:56 AM,75.9,39.0,26,29.85,10.0,Calm,Calm,-,N/A,,Clear,0,2013-07-11 15:56:00
9:56 AM,78.1,39.9,25,29.85,6.0,Variable,3.5,-,N/A,,Haze,0,2013-07-11 16:56:00
10:03 AM,78.8,39.2,24,29.89,6.0,Calm,Calm,-,N/A,,Haze,0,2013-07-11 17:03:00
10:56 AM,81.0,37.9,21,29.85,10.0,Calm,Calm,-,N/A,,Clear,0,2013-07-11 17:56:00
11:56 AM,82.9,37.9,20,29.85,10.0,WNW,11.5,17.3,N/A,,Clear,300,2013-07-11 18:56:00
12:56 PM,84.9,37.0,18,29.84,10.0,NNE,9.2,-,N/A,,Clear,20,2013-07-11 19:56:00
1:56 PM,86.0,35.1,16,29.82,10.0,Variable,3.5,-,N/A,,Clear,0,2013-07-11 20:56:00
2:56 PM,88.0,35.1,15,29.81,10.0,West,6.9,16.1,N/A,,Clear,270,2013-07-11 21:56:00
3:56 PM,89.1,35.1,15,29.78,10.0,North,10.4,-,N/A,,Clear,360,2013-07-11 22:56:00
4:56 PM,89.1,34.0,14,29.77,10.0,NNW,17.3,23.0,N/A,,Clear,340,2013-07-11 23:56:00
5:56 PM,88.0,35.1,15,29.76,10.0,NNW,12.7,-,N/A,,Clear,340,2013-07-12 00:56:00
6:56 PM,86.0,35.1,16,29.75,10.0,NW,9.2,-,N/A,,Clear,310,2013-07-12 01:56:00
7:56 PM,82.0,32.0,16,29.76,10.0,NW,11.5,21.9,N/A,,Clear,310,2013-07-12 02:56:00
8:56 PM,80.1,32.0,17,29.77,10.0,NW,11.5,19.6,N/A,,Clear,310,2013-07-12 03:56:00
9:56 PM,75.9,32.0,20,29.80,10.0,Calm,Calm,-,N/A,,Clear,0,2013-07-12 04:56:00
10:56 PM,73.9,30.0,20,29.80,10.0,West,3.5,-,N/A,,Clear,270,2013-07-12 05:56:00
11:56 PM,68.0,34.0,28,29.81,10.0,SSE,3.5,-,N/A,,Clear,150,2013-07-12 06:56:00